This is the latest recevied weather packets stored in our database for station/object KC4JIR. If no packets are shown the sender has not sent any weather packets the latest 10 day(s).
| Time | Temp. | Humidity | Pressure | Rain* | Wind** | Luminosity | Snow |
|---|---|---|---|---|---|---|---|
| 1787876737 | 22.78° C | 99% | 1012.4 hPa | 0 mm | - | 0 W/m² | - |
| 1787876428 | 22.78° C | 99% | 1012.3 hPa | 0 mm | - | 0 W/m² | - |
| 1787876127 | 22.78° C | 99% | 1012.6 hPa | 0 mm | - | 0 W/m² | - |
| 1787875822 | 23.33° C | 99% | 1012.4 hPa | 0 mm | - | 0 W/m² | - |
| 1787875520 | 22.78° C | 99% | 1012.3 hPa | 0 mm | - | 0 W/m² | - |
| 1787875215 | 22.78° C | 99% | 1012.2 hPa | 0 mm | - | 0 W/m² | - |
| 1787874913 | 23.33° C | 99% | 1012.5 hPa | 0 mm | - | 1 W/m² | - |
| 1787874609 | 23.33° C | 99% | 1012.2 hPa | 0 mm | - | 1 W/m² | - |
| 1787874302 | 23.33° C | 99% | 1012.3 hPa | 0 mm | - | 2 W/m² | - |
| 1787874002 | 23.33° C | 99% | 1012.2 hPa | 0 mm | - | 5 W/m² | - |
| 1787873701 | 23.33° C | 99% | 1012.2 hPa | 0 mm | - | 5 W/m² | - |
| 1787873396 | 23.33° C | 99% | 1012.3 hPa | 0 mm | - | 8 W/m² | - |
| 1787873091 | 23.33° C | 99% | 1011.9 hPa | 0 mm | - | 10 W/m² | - |
| 1787872785 | 23.33° C | 99% | 1012.2 hPa | 0 mm | - | 11 W/m² | - |
| 1787872481 | 23.33° C | 99% | 1012.1 hPa | 0 mm | - | 13 W/m² | - |
| 1787872176 | 23.33° C | 99% | 1012 hPa | 0 mm | - | 16 W/m² | - |
| 1787871876 | 23.33° C | 99% | 1012.1 hPa | 0 mm | - | 19 W/m² | - |
| 1787871570 | 23.33° C | 99% | 1012.1 hPa | 0 mm | - | 23 W/m² | - |
| 1787871266 | 23.33° C | 99% | 1012.2 hPa | 0 mm | - | 24 W/m² | - |
| 1787870968 | 23.33° C | 99% | 1012.4 hPa | 1.78 mm | - | 26 W/m² | - |
| 1787870661 | 23.33° C | 99% | 1012.3 hPa | 3.05 mm | - | 28 W/m² | - |
| 1787870355 | 23.33° C | 99% | 1012.3 hPa | 1.27 mm | - | 37 W/m² | - |
| 1787870051 | 23.33° C | 99% | 1012.5 hPa | 0 mm | - | 35 W/m² | - |
| 1787869750 | 23.33° C | 99% | 1012.4 hPa | 0 mm | - | 24 W/m² | - |
| 1787869449 | 23.33° C | 99% | 1012.4 hPa | 0 mm | - | 14 W/m² | - |
* Rain latest hour (hover to see other rain measurements)
** Current wind speed in m/s (hover to see current wind gust speed)